Dewpoint
76 77 76 77 77 77 76 77 76 77 76 76 76 75 75 74 73 73 73 71 71 70 69 67 67 67 66 66 65 66 66 65 64 65 65 64 64 64 64 63 63 63 64 63 62 62 62 62 62 62 62 64 64 64 61 61 63 62 62 62 61 62 62 63 60 58 58 59 58 58 59 61 60 61 61 61 62 61 61 62 63 63 62 61 61
76 77 77 76 77 77 76 75 76 76 76 76 75 75 74 74 74 74 73 72 71 69 69 68 69 68 66 66 67 66 66 66 63 64 63 62 63 63 63 64 64 63 63 62 62 62 62 62 61 62 63 64 65 61 60 58 60 59 60 62 62 61 63 62 62 62 58 58 57 59 59 58 58 61 60 60 60 62 62 62 61 60 60 61 61
74 77 76 76 76 77 76 76 76 76 75 74 73 72 73 74 74 73 71 70 72 70 70 69 70 70 69 68 69 67 66 65 64 63 62 63 64 63 63 63 63 63 62 62 62 62 61 62 61 61 61 61 61 61 60 61 61 61 61 61 61 62 62 63 63 61 59 58 59 58 58 59 59 60 61 60 62 62 63 63 61 60 60 60 60
71 76 76 75 76 76 76 75 74 73 72 73 72 71 71 72 73 72 70 69 69 69 69 70 71 71 70 70 70 69 67 65 64 63 63 64 65 64 64 64 63 62 62 62 61 61 61 61 60 60 59 59 60 60 61 62 61 61 62 63 62 63 64 63 63 64 62 59 60 59 59 58 59 61 62 62 60 61 61 61 61 61 62 61 61
69 73 74 73 74 75 74 73 73 72 71 70 70 70 69 69 70 70 68 68 70 71 71 71 72 71 70 69 69 69 67 65 65 63 63 64 65 64 64 64 63 63 63 62 62 62 61 61 59 59 59 58 59 59 61 61 62 63 62 61 61 62 63 63 63 63 63 61 60 61 61 61 60 61 62 61 60 61 61 61 61 61 61 60 59
66 72 73 72 74 74 74 72 71 71 71 71 71 68 67 69 68 67 67 67 69 69 70 71 69 68 68 68 69 68 67 66 65 65 63 63 64 64 63 63 62 63 63 62 62 62 62 61 60 60 58 58 58 59 61 61 63 63 64 64 63 63 63 64 63 63 64 62 63 59 62 61 61 60 61 61 59 58 60 60 61 61 61 59 57
69 70 72 71 74 74 72 72 72 71 72 71 70 68 66 65 65 64 65 68 68 68 70 69 69 69 69 68 67 66 66 66 66 66 66 65 64 64 64 63 63 63 62 61 60 60 60 60 60 60 59 59 59 60 62 62 61 62 64 65 65 65 64 64 64 64 63 62 61 62 62 62 62 58 59 60 61 60 59 60 58 58 58 58 57
71 72 73 73 74 73 73 74 74 73 72 70 70 69 70 69 70 70 70 68 67 68 68 68 69 69 68 68 67 66 66 66 66 67 67 66 64 64 64 64 62 62 62 62 61 60 59 58 56 57 58 60 61 62 63 62 63 63 63 63 63 64 64 63 63 62 61 60 59 59 59 62 62 61 59 60 60 57 57 55 54 55 56 58 59
73 72 74 74 75 75 74 74 73 71 70 69 69 69 70 69 68 68 69 68 70 70 67 66 67 67 67 67 67 66 66 65 66 67 68 67 66 65 64 63 63 62 62 61 62 62 63 62 61 58 61 63 66 68 67 66 65 63 62 62 62 62 61 63 61 61 61 60 59 60 60 60 60 60 58 57 56 55 57 58 60 60 57 56 58
74 74 74 74 75 75 74 74 72 69 68 69 68 68 68 66 66 65 66 67 69 69 69 68 66 67 67 67 67 67 67 67 65 63 65 67 67 67 65 64 63 62 61 62 61 62 63 62 63 65 66 68 68 67 64 63 63 64 65 63 62 61 60 60 60 60 61 61 60 60 57 57 58 59 58 57 58 58 58 60 59 58 60 58 58
75 75 74 74 74 75 74 73 70 68 68 68 67 66 65 65 65 65 66 67 66 68 68 68 66 65 65 66 67 67 67 66 62 62 62 64 67 67 66 66 66 64 61 62 63 63 62 62 63 64 66 66 66 63 62 62 63 63 62 62 63 64 62 61 60 60 61 60 59 58 56 57 57 58 60 58 57 57 59 61 60 60 59 57 55
73 74 74 75 75 75 74 71 69 68 68 68 68 68 68 67 66 66 67 67 66 65 65 65 67 66 65 66 66 66 66 63 61 61 62 61 63 67 66 66 65 64 64 62 62 61 61 64 66 67 66 66 64 64 66 65 63 63 63 62 61 61 61 63 63 62 61 60 59 60 58 57 58 59 58 56 57 58 60 61 60 59 59 59 56
74 75 74 75 75 74 73 71 69 68 68 68 69 69 69 68 67 67 66 67 68 67 66 67 67 67 66 66 65 64 65 62 61 60 61 60 61 63 65 66 66 66 65 65 66 66 66 67 66 66 67 66 66 63 64 63 66 65 63 63 63 62 60 60 60 64 62 61 60 59 59 60 61 61 60 61 61 60 60 59 59 58 58 58 57
74 74 75 75 74 73 73 71 70 69 68 68 68 68 67 68 67 67 66 66 66 66 66 67 67 68 67 66 65 65 66 62 60 59 59 60 60 62 64 64 65 65 66 65 65 65 66 67 66 66 65 65 65 64 64 64 66 64 64 65 62 62 64 60 59 59 62 63 63 61 62 62 61 63 62 61 60 59 58 58 60 58 57 57 59
74 74 74 74 74 74 72 71 70 69 68 68 67 67 67 67 67 66 65 65 66 66 66 67 66 67 67 67 67 67 66 61 59 58 58 58 58 61 63 64 64 65 66 66 67 66 66 66 65 65 65 65 65 67 65 64 64 63 63 61 60 59 60 59 60 62 63 61 61 61 61 62 62 62 61 61 60 60 59 60 60 59 59 59 58
74 74 74 74 73 73 71 71 70 70 69 69 68 68 68 68 67 66 66 65 66 65 66 66 65 66 65 66 66 67 66 60 59 58 57 57 59 63 65 65 66 66 66 67 67 67 67 66 65 65 64 63 62 60 61 64 62 61 61 61 60 60 58 60 61 60 60 59 59 59 57 57 55 59 59 57 58 59 58 57 58 58 57 55 53
73 74 73 72 72 72 71 71 70 70 69 69 68 68 67 67 68 68 68 66 64 65 66 64 66 65 65 66 66 66 66 62 58 57 57 57 59 65 66 66 66 66 66 66 66 66 66 66 65 63 63 63 59 57 58 60 61 60 60 59 58 57 57 57 61 58 59 57 56 56 55 54 54 54 53 54 58 58 58 57 55 53 53 53 53
72 72 71 71 71 71 71 71 70 70 70 69 69 68 67 68 68 69 68 66 64 63 64 64 66 66 65 65 64 65 64 62 57 56 56 56 61 66 66 66 66 66 65 66 66 66 65 64 63 63 64 63 55 56 56 60 61 60 59 57 56 56 57 56 56 60 58 57 56 56 55 55 55 54 54 54 54 54 59 56 53 53 53 53 51
72 72 71 70 71 70 70 71 71 69 69 69 69 68 68 68 68 68 67 66 65 66 65 65 65 65 63 64 63 63 63 61 56 55 54 55 62 67 66 65 64 65 64 65 66 65 65 63 63 64 64 58 53 55 55 58 60 60 59 58 56 56 56 56 55 53 55 55 56 56 59 57 61 61 60 57 57 58 60 58 55 53 52 51 50
73 72 71 71 70 70 70 70 69 69 69 69 69 68 67 67 67 66 66 65 65 65 65 65 64 63 63 63 63 62 62 65 64 54 53 53 56 66 66 66 65 64 65 63 63 64 64 64 61 56 54 52 51 51 52 52 61 60 59 56 56 56 57 58 58 56 56 55 55 55 56 56 56 56 55 53 53 56 54 54 54 52 52 51 49
73 72 71 70 70 70 70 70 69 69 68 68 67 67 65 64 63 64 61 60 62 62 62 61 62 62 61 60 59 61 59 59 67 54 52 53 54 57 64 64 63 62 61 63 61 61 62 60 62 53 51 50 49 48 48 50 53 60 59 56 57 57 52 54 55 55 55 56 56 54 53 54 53 53 51 51 49 48 49 50 50 50 49 48 46
73 73 72 71 70 69 70 70 70 70 70 69 69 65 63 64 64 63 60 61 62 62 62 62 60 60 60 59 61 60 62 66 67 55 52 51 52 54 60 60 61 61 62 62 61 61 62 61 61 55 50 49 48 46 47 49 52 58 61 48 48 50 54 54 54 54 53 52 52 52 52 51 50 51 50 48 46 47 46 46 45 46 48 48 50
73 72 72 71 71 69 69 70 70 69 68 67 66 63 63 63 63 62 61 60 61 61 62 61 60 59 59 60 60 61 68 66 62 62 52 51 50 51 55 59 57 66 62 63 62 62 62 61 59 51 49 47 45 46 46 48 49 55 48 48 48 49 51 51 54 54 53 53 53 53 51 50 49 47 47 47 47 50 47 46 47 48 51 51 52
73 72 71 71 69 69 69 69 68 67 67 67 65 64 63 62 62 61 61 61 61 61 59 59 59 58 58 58 62 66 68 67 60 61 59 52 50 49 50 53 56 61 62 60 62 59 61 60 58 47 45 43 43 46 47 49 55 45 46 48 49 51 50 54 52 53 53 51 51 50 50 48 47 47 47 49 48 51 51 52 53 52 51 51 52
72 71 70 70 70 69 69 68 67 66 65 64 64 63 62 62 62 63 62 62 61 61 60 59 59 58 57 58 62 65 65 66 64 61 57 51 50 49 50 52 52 53 60 60 60 59 49 46 45 45 45 44 45 48 47 48 48 47 47 48 52 49 53 51 52 53 52 51 49 49 49 49 48 47 50 52 53 53 53 51 50 51 50 51 52
71 70 70 70 69 68 68 67 66 65 64 64 65 64 63 62 61 63 61 60 61 60 60 58 58 59 58 60 62 64 64 64 64 64 57 54 52 51 51 52 54 55 56 56 50 49 48 47 47 47 47 49 54 55 56 58 50 51 52 52 50 51 50 50 51 51 51 48 48 47 45 45 45 48 51 52 52 48 48 49 48 48 49 50 50
70 70 70 70 69 68 67 64 63 63 64 64 63 63 63 62 63 63 62 60 61 60 60 60 60 59 60 60 62 63 63 63 63 62 61 58 58 55 54 55 53 54 58 56 53 54 54 53 54 53 51 54 54 51 52 51 52 51 50 50 50 49 49 50 49 49 47 45 44 45 45 45 48 50 49 47 45 45 47 47 45 46 48 49 49
69 70 69 68 67 66 65 65 64 62 62 61 61 61 63 63 61 62 61 61 60 60 60 59 59 58 58 58 61 62 61 62 62 62 60 59 59 59 58 56 55 57 55 56 58 56 55 53 53 55 55 54 52 52 52 52 52 50 48 48 47 48 46 45 44 48 49 49 48 47 48 49 47 45 42 41 41 43 46 46 46 48 48 48 50
68 68 66 66 66 66 64 63 62 62 62 63 64 64 66 64 63 62 65 65 64 60 59 57 58 57 56 59 61 61 61 61 62 58 68 57 65 56 58 55 55 57 54 52 56 56 57 55 56 53 54 53 51 50 47 48 49 49 50 49 47 45 45 44 45 44 46 46 45 46 44 45 44 42 40 39 42 41 44 45 49 49 51 51 50
67 65 64 63 63 63 63 61 62 62 61 62 62 57 48 42 50 60 59 53 47 42 47 60 57 57 54 55 61 56 54 61 48 45 44 43 42 42 42 43 46 50 49 50 56 54 53 52 51 50 49 50 47 46 44 44 46 46 46 47 45 45 44 43 43 42 44 44 43 44 44 43 40 39 39 39 41 40 42 45 48 50 49 48 49
65 62 63 61 62 63 61 61 62 64 62 62 61 57 54 53 39 40 46 47 44 39 39 40 43 47 59 60 53 45 46 45 43 43 42 41 41 40 40 41 42 43 45 55 53 52 52 52 50 49 48 46 44 43 46 45 45 45 44 44 44 44 44 42 41 41 41 40 40 42 41 38 39 39 38 38 39 38 39 43 46 50 48 49 49
64 62 62 62 65 66 62 62 63 63 63 63 63 60 59 59 56 42 39 41 41 39 39 39 40 44 45 53 55 56 46 42 41 41 41 40 40 39 39 40 40 42 42 41 56 53 51 50 49 47 46 45 45 45 44 43 44 45 44 42 42 43 42 40 43 40 39 39 40 38 36 37 37 37 37 37 37 36 38 41 44 46 47 48 49
62 61 63 64 64 65 62 63 62 62 62 63 63 62 60 59 58 55 51 39 39 39 39 39 39 38 40 41 45 50 47 41 40 40 40 39 39 39 39 39 39 39 42 51 53 49 48 49 46 48 46 46 46 45 46 43 43 42 41 42 41 41 40 43 44 43 43 41 39 36 36 36 36 35 36 36 36 37 38 40 43 44 45 46 48
65 63 63 64 64 64 62 62 61 61 61 62 61 61 60 59 58 59 55 54 54 47 41 39 40 40 38 39 41 41 40 40 40 40 39 39 39 39 41 45 38 38 42 56 50 49 46 46 46 46 46 47 45 44 45 45 44 43 42 41 41 40 41 43 44 42 39 37 36 36 35 33 34 35 35 35 35 36 37 39 41 43 45 45 47
65 64 64 63 63 63 61 62 60 60 59 61 60 59 59 59 59 58 57 56 57 57 55 53 44 39 48 43 39 39 39 39 40 40 39 39 40 40 42 53 54 52 52 52 52 49 47 47 47 47 47 47 46 46 45 44 43 43 42 41 39 36 35 35 37 38 39 37 37 35 34 35 37 36 34 34 35 36 36 38 39 42 44 45 46
62 61 62 62 62 61 60 61 60 60 61 61 61 58 58 58 56 55 55 55 55 59 56 55 52 43 40 38 38 38 38 39 39 39 39 39 40 41 54 52 50 50 49 50 49 49 48 48 48 48 48 48 48 46 43 43 43 42 41 40 34 32 32 34 39 40 41 38 36 37 36 36 34 34 33 33 36 37 36 38 38 42 43 45 46
58 58 59 60 60 60 61 62 63 62 59 58 58 58 57 57 56 55 55 56 59 59 56 55 53 52 49 47 43 39 38 39 39 39 39 39 39 50 51 50 50 50 49 48 48 49 49 48 48 48 48 47 46 44 42 43 43 44 41 38 38 33 34 39 39 38 39 37 38 39 38 36 34 35 33 34 35 37 34 36 39 41 42 43 45
57 56 58 62 63 64 63 61 59 58 59 57 60 60 58 59 59 58 59 59 60 58 58 57 55 55 54 52 49 48 44 38 38 38 38 40 50 52 51 51 51 49 48 48 50 49 48 48 48 48 47 45 44 43 41 43 42 39 36 38 39 39 42 31 40 46 46 41 37 38 34 35 34 34 34 34 35 34 33 36 37 38 41 43 45
61 58 57 58 58 55 54 57 58 56 57 58 59 59 58 58 58 57 58 57 56 54 55 57 55 55 55 52 52 49 48 50 50 50 49 49 49 49 49 50 49 49 49 48 49 49 48 47 47 47 46 44 43 43 42 41 40 37 37 31 31 34 39 38 38 40 36 35 34 34 34 33 33 34 35 34 34 35 36 37 37 36 39 41 43
56 55 57 57 57 59 60 61 59 60 60 60 58 57 57 56 56 56 55 55 55 55 54 55 55 57 56 55 53 51 52 52 50 50 50 49 49 49 50 49 49 49 49 49 48 47 47 46 46 47 46 45 44 43 42 42 40 36 34 31 32 35 36 36 34 34 34 34 34 34 33 35 35 34 35 34 35 35 38 36 36 36 37 40 42
57 58 59 59 59 60 60 59 59 60 59 58 58 57 57 58 57 56 55 55 56 56 57 56 57 57 56 55 48 48 54 52 52 51 50 49 50 51 51 49 49 49 48 47 47 46 46 46 45 45 44 44 43 43 41 39 36 33 27 31 31 31 32 34 36 35 35 35 34 33 33 33 33 33 33 34 37 36 35 36 36 35 35 40 42
59 59 59 59 60 58 57 58 59 60 62 61 60 58 59 58 57 56 56 57 56 56 56 55 57 57 51 46 45 44 52 53 53 51 52 51 51 50 50 50 50 50 48 47 49 48 47 47 45 44 43 43 41 41 39 36 33 28 25 26 31 33 32 32 35 38 35 34 34 34 33 34 34 34 35 36 34 34 35 35 35 35 36 39 41
61 59 59 58 57 57 57 58 60 59 59 60 61 60 61 61 59 59 58 57 56 55 55 56 56 55 53 47 48 45 52 52 53 52 52 52 51 50 51 50 50 50 50 49 47 48 47 44 44 45 42 43 43 41 38 35 32 26 22 27 30 33 34 34 33 34 34 34 33 34 35 35 32 32 33 34 34 35 35 36 36 35 36 40 42
59 59 59 58 58 58 59 60 59 61 60 61 61 61 61 60 59 58 58 57 55 54 55 55 55 55 53 49 49 49 51 52 52 52 52 51 51 51 50 50 49 49 48 48 47 47 46 46 45 43 44 42 42 42 36 30 26 24 25 27 29 33 33 34 34 35 34 33 32 33 34 33 33 32 33 33 35 35 34 36 36 36 36 37 39
57 57 56 55 57 58 59 62 61 61 60 60 60 60 59 58 57 56 56 55 56 54 53 52 52 51 52 53 52 53 52 52 52 51 51 51 51 51 49 49 49 49 47 47 46 49 47 45 45 44 43 42 40 38 34 30 29 27 22 26 32 31 32 35 36 36 34 36 34 33 32 31 31 32 32 32 35 35 32 35 35 39 36 36 36
56 56 54 56 57 59 59 60 61 60 59 59 57 56 56 56 55 54 54 55 54 53 53 52 52 52 52 54 53 52 52 53 51 52 52 51 52 50 49 49 49 49 46 44 46 47 45 45 43 42 43 41 40 36 31 31 28 26 27 28 28 30 33 34 34 35 35 37 35 33 33 32 33 33 33 33 33 33 35 37 37 35 36 36 34
57 57 55 55 57 60 59 59 58 58 57 56 55 54 54 55 54 54 54 54 54 53 53 53 53 52 52 54 52 53 53 52 52 52 52 53 52 51 50 49 48 45 44 46 48 45 45 44 43 43 42 41 40 39 33 27 27 26 30 28 27 30 31 34 37 38 38 38 37 35 34 34 33 35 32 34 34 34 36 34 34 36 36 34 33
57 56 57 58 58 56 56 57 56 56 55 53 53 54 52 52 52 51 52 51 51 50 49 50 52 51 51 51 51 50 51 51 51 50 51 52 51 49 49 48 46 44 44 46 46 44 44 44 44 43 43 42 40 38 35 32 29 30 29 30 30 33 36 35 37 37 41 40 37 37 37 35 34 33 33 35 36 34 35 32 34 33 35 33 32
53 53 54 55 53 52 55 54 54 52 52 51 51 50 50 50 50 49 48 48 47 46 46 45 48 47 48 50 49 49 50 50 51 50 50 50 50 49 48 47 46 46 43 44 44 44 45 44 44 44 42 42 40 37 36 35 32 31 32 30 35 36 32 31 32 36 34 36 36 38 38 36 35 35 34 36 36 35 32 34 34 35 34 34 31
51 51 51 50 50 50 52 51 51 50 50 49 49 49 49 50 48 48 47 48 46 46 44 46 46 45 46 46 47 48 48 49 50 49 48 50 48 48 46 47 46 45 44 44 44 44 44 45 45 43 42 41 40 39 35 33 34 32 33 37 33 32 31 31 32 33 33 35 36 37 36 36 36 34 34 35 35 36 34 32 34 34 32 32 32
50 49 49 48 49 50 50 49 49 49 49 48 47 48 47 47 46 43 43 44 45 45 45 46 45 46 46 46 47 48 48 49 49 49 48 49 49 47 45 46 45 45 45 45 44 44 44 44 43 42 42 40 39 37 36 34 35 36 34 32 32 33 32 33 31 33 35 36 35 35 35 36 36 35 34 33 31 33 33 34 33 33 33 30 32